Location: N�rnberg
(49.4489°N, 11.0797°E)
Time: 16:57:18
(UTC+02:00)

ISS - Pass Details

Date: 29 March 2017
Orbit: 401 x 409 km, 51.6° (Epoch: 28 April)

Event Time Altitude Azimuth Distance (km) Brightness Sun altitude
Rises 21:29:50 0° 238° (WSW) 2,314 0.4 -17.4°
Reaches altitude 10° 21:31:55 10° 235° (SW) 1,458 -0.7 -17.7°
Enters shadow 21:35:06 60° 159° (SSE) 471 -3.8 -18.1°
